Date,TemperatureHighF,TemperatureAvgF,TemperatureLowF,DewpointHighF,DewpointAvgF,DewpointLowF,HumidityHigh,HumidityAvg,HumidityLow,PressureMaxIn,PressureMinIn,WindSpeedMaxMPH,WindSpeedAvgMPH,GustSpeedMaxMPH,PrecipitationSumIn
2013-7-1,89,80,72,66,60,55,74,52,35,28.60,28.46,8,3,15,0.00
2013-7-2,75,75,75,65,65,65,71,71,71,28.60,28.60,0,0,1,0.00
2013-7-3,88,86,81,64,62,59,48,45,41,28.53,28.47,12,5,19,0.00
2013-7-4,89,82,76,65,58,55,51,45,37,28.51,28.43,10,4,20,0.00
2013-7-5,89,83,76,67,60,54,53,46,38,28.50,28.43,10,4,21,0.00
2013-7-6,86,82,77,66,64,61,69,56,48,28.48,28.42,14,5,24,0.00
2013-7-7,90,85,79,68,66,63,67,53,46,28.53,28.44,14,8,26,0.02
2013-7-8,92,85,79,64,62,60,57,48,37,28.57,28.50,9,6,21,0.00
2013-7-9,94,87,81,68,64,58,55,46,37,28.55,28.40,10,6,19,0.00
2013-7-10,94,85,79,69,66,63,65,54,39,28.43,28.30,13,5,21,0.00
2013-7-11,93,86,78,69,64,58,68,48,38,28.39,28.32,9,3,13,0.00
2013-7-12,92,84,78,71,67,62,68,56,42,28.47,28.39,10,2,17,0.00
2013-7-13,93,87,80,68,66,63,63,51,45,28.48,28.41,8,3,20,0.00
2013-7-14,95,86,80,72,64,61,76,50,35,28.48,28.41,10,4,17,0.00
2013-7-15,92,84,79,68,63,58,67,51,40,28.47,28.38,9,3,18,0.00
2013-7-16,90,84,80,65,61,59,52,46,40,28.49,28.41,6,3,17,0.00
2013-7-17,83,80,75,66,63,59,68,57,49,28.55,28.49,13,8,24,0.07
2013-7-18,86,80,75,64,60,58,65,52,38,28.57,28.52,14,8,28,0.27
2013-7-19,88,82,76,61,58,54,56,46,36,28.55,28.45,15,7,23,0.00
2013-7-20,92,84,76,63,60,54,56,45,32,28.46,28.36,13,5,21,0.00
2013-7-21,94,86,78,63,60,55,52,42,33,28.42,28.36,10,4,21,0.00
2013-7-22,86,81,77,68,64,58,73,58,43,28.44,28.40,13,8,27,0.04
2013-7-23,89,81,74,66,60,52,64,49,29,28.43,28.38,10,5,19,0.00
2013-7-24,91,87,84,57,56,55,38,35,31,28.44,28.41,3,1,9,0.00
2013-7-25,96,87,82,71,60,54,58,41,33,28.48,28.38,6,2,15,0.00
2013-7-26,97,90,80,71,64,56,63,43,29,28.42,28.33,8,2,16,0.00
2013-7-27,95,88,81,66,62,56,57,43,32,28.43,28.36,9,3,22,0.00
2013-7-28,94,86,80,65,62,59,54,46,37,28.52,28.44,9,2,16,0.00
2013-7-29,96,86,80,64,61,56,52,44,26,28.53,28.43,12,4,21,0.00
2013-7-30,98,88,84,74,65,59,70,47,36,28.44,28.26,6,2,10,0.00
2013-7-31,99,91,84,72,67,62,60,46,39,28.29,28.21,10,4,22,0.00